Time,TemperatureF,DewpointF,PressureIn,WindDirection,WindDirectionDegrees,WindSpeedMPH,WindSpeedGustMPH,Humidity,HourlyPrecipIn,Conditions,Clouds,dailyrainin,SoftwareType,DateUTC
2013-08-02 00:02:00,68.0,63.0,29.89,West,263,3.0,9.0,83,0.00,,,0.28,,2013-08-02 04:02:00,
2013-08-02 00:22:00,67.0,62.0,29.90,West,261,0.0,3.0,84,0.00,,,0.28,,2013-08-02 04:22:00,
2013-08-02 00:33:00,67.0,62.0,29.90,West,261,0.0,3.0,84,0.00,,,0.28,,2013-08-02 04:33:00,
2013-08-02 00:43:00,67.0,62.0,29.90,West,265,1.0,8.0,85,0.00,,,0.28,,2013-08-02 04:43:00,
2013-08-02 00:53:00,67.0,63.0,29.90,WNW,290,3.0,6.0,86,0.00,,,0.28,,2013-08-02 04:53:00,
2013-08-02 01:02:00,67.0,63.0,29.90,WNW,290,3.0,6.0,86,0.00,,,0.28,,2013-08-02 05:02:00,
2013-08-02 01:12:00,66.0,62.0,29.90,WSW,237,1.0,7.0,87,0.00,,,0.28,,2013-08-02 05:12:00,
2013-08-02 01:22:00,66.0,62.0,29.91,West,279,2.0,4.0,87,0.00,,,0.28,,2013-08-02 05:22:00,
2013-08-02 01:32:00,66.0,62.0,29.91,West,279,2.0,4.0,87,0.00,,,0.28,,2013-08-02 05:32:00,
2013-08-02 01:43:00,66.0,62.0,29.91,West,263,3.0,7.0,88,0.00,,,0.28,,2013-08-02 05:43:00,
2013-08-02 01:53:00,65.0,61.0,29.91,WNW,286,1.0,5.0,88,0.00,,,0.28,,2013-08-02 05:53:00,
2013-08-02 02:02:00,65.0,61.0,29.91,WNW,286,1.0,5.0,88,0.00,,,0.28,,2013-08-02 06:02:00,
2013-08-02 02:12:00,65.0,61.0,29.91,WSW,254,2.0,7.0,88,0.00,,,0.28,,2013-08-02 06:12:00,
2013-08-02 02:22:00,65.0,62.0,29.90,West,271,2.0,8.0,89,0.00,,,0.28,,2013-08-02 06:22:00,
2013-08-02 02:33:00,65.0,62.0,29.90,West,271,2.0,8.0,89,0.00,,,0.28,,2013-08-02 06:33:00,
2013-08-02 02:43:00,65.0,61.0,29.90,WNW,286,1.0,6.0,88,0.00,,,0.28,,2013-08-02 06:43:00,
2013-08-02 02:52:00,65.0,61.0,29.90,WSW,252,1.0,4.0,88,0.00,,,0.28,,2013-08-02 06:52:00,
2013-08-02 03:02:00,65.0,61.0,29.90,WSW,252,1.0,4.0,88,0.00,,,0.28,,2013-08-02 07:02:00,
2013-08-02 03:12:00,65.0,61.0,29.90,West,269,1.0,5.0,88,0.00,,,0.28,,2013-08-02 07:12:00,
2013-08-02 03:22:00,65.0,61.0,29.90,WSW,243,1.0,5.0,88,0.00,,,0.28,,2013-08-02 07:22:00,
2013-08-02 03:33:00,65.0,61.0,29.90,WSW,243,1.0,5.0,88,0.00,,,0.28,,2013-08-02 07:33:00,
2013-08-02 03:44:00,64.0,60.0,29.90,West,265,0.0,5.0,88,0.00,,,0.28,,2013-08-02 07:44:00,
2013-08-02 03:53:00,64.0,60.0,29.90,West,270,1.0,6.0,88,0.00,,,0.28,,2013-08-02 07:53:00,
2013-08-02 04:02:00,64.0,60.0,29.90,West,270,1.0,6.0,88,0.00,,,0.28,,2013-08-02 08:02:00,
2013-08-02 04:12:00,64.0,60.0,29.90,WNW,301,0.0,4.0,88,0.00,,,0.28,,2013-08-02 08:12:00,
2013-08-02 04:33:00,64.0,61.0,29.90,WNW,296,0.0,4.0,89,0.00,,,0.28,,2013-08-02 08:33:00,
2013-08-02 04:43:00,63.0,60.0,29.90,WNW,296,0.0,3.0,89,0.00,,,0.28,,2013-08-02 08:43:00,
2013-08-02 04:54:00,63.0,60.0,29.90,WNW,296,0.0,0.0,89,0.00,,,0.28,,2013-08-02 08:54:00,
2013-08-02 05:02:00,63.0,60.0,29.90,WNW,296,0.0,0.0,89,0.00,,,0.28,,2013-08-02 09:02:00,
2013-08-02 05:12:00,63.0,60.0,29.90,WNW,296,0.0,0.0,90,0.00,,,0.28,,2013-08-02 09:12:00,
2013-08-02 05:23:00,63.0,60.0,29.90,WNW,296,0.0,0.0,90,0.00,,,0.28,,2013-08-02 09:23:00,
2013-08-02 05:33:00,62.0,59.0,29.91,WNW,296,0.0,2.0,91,0.00,,,0.28,,2013-08-02 09:33:00,
2013-08-02 05:44:00,62.0,59.0,29.90,WNW,296,0.0,1.0,91,0.00,,,0.28,,2013-08-02 09:44:00,
2013-08-02 05:53:00,61.0,59.0,29.91,WNW,296,0.0,1.0,92,0.00,,,0.28,,2013-08-02 09:53:00,
2013-08-02 06:03:00,61.0,59.0,29.91,WNW,296,0.0,1.0,92,0.00,,,0.28,,2013-08-02 10:03:00,
2013-08-02 06:12:00,61.0,59.0,29.91,WNW,296,0.0,0.0,92,0.00,,,0.28,,2013-08-02 10:12:00,
2013-08-02 06:23:00,61.0,59.0,29.92,WNW,296,0.0,2.0,93,0.00,,,0.28,,2013-08-02 10:23:00,
2013-08-02 06:33:00,61.0,59.0,29.92,WNW,296,0.0,2.0,93,0.00,,,0.28,,2013-08-02 10:33:00,
2013-08-02 06:43:00,61.0,59.0,29.92,WNW,296,0.0,2.0,93,0.00,,,0.28,,2013-08-02 10:43:00,
2013-08-02 06:52:00,61.0,59.0,29.92,WNW,296,0.0,0.0,94,0.00,,,0.28,,2013-08-02 10:52:00,
2013-08-02 07:02:00,61.0,59.0,29.92,WNW,296,0.0,0.0,94,0.00,,,0.28,,2013-08-02 11:02:00,
2013-08-02 07:12:00,61.0,59.0,29.92,WNW,296,0.0,1.0,94,0.00,,,0.28,,2013-08-02 11:12:00,
2013-08-02 07:23:00,62.0,60.0,29.92,WNW,293,0.0,3.0,93,0.00,,,0.28,,2013-08-02 11:23:00,
2013-08-02 07:33:00,62.0,60.0,29.92,WNW,293,0.0,3.0,93,0.00,,,0.28,,2013-08-02 11:33:00,
2013-08-02 07:43:00,64.0,61.0,29.93,West,270,2.0,7.0,90,0.00,,,0.28,,2013-08-02 11:43:00,
2013-08-02 07:52:00,65.0,61.0,29.93,SW,234,2.0,7.0,86,0.00,,,0.28,,2013-08-02 11:52:00,
2013-08-02 08:02:00,65.0,61.0,29.93,SW,234,2.0,7.0,86,0.00,,,0.28,,2013-08-02 12:02:00,
2013-08-02 08:12:00,67.0,62.0,29.93,SW,225,2.0,8.0,83,0.00,,,0.19,,2013-08-02 12:12:00,
2013-08-02 08:22:00,67.0,62.0,29.93,SW,225,2.0,8.0,83,0.00,,,0.19,,2013-08-02 12:22:00,
2013-08-02 08:33:00,67.0,61.0,29.94,WSW,240,2.0,8.0,81,0.00,,,0.19,,2013-08-02 12:33:00,
2013-08-02 08:43:00,68.0,62.0,29.94,WSW,246,1.0,7.0,80,0.00,,,0.19,,2013-08-02 12:43:00,
2013-08-02 08:52:00,69.0,61.0,29.94,SW,231,2.0,7.0,77,0.00,,,0.19,,2013-08-02 12:52:00,
2013-08-02 09:03:00,69.0,61.0,29.94,SW,231,2.0,7.0,77,0.00,,,0.19,,2013-08-02 13:03:00,
2013-08-02 09:12:00,70.0,62.0,29.94,SW,229,1.0,7.0,75,0.00,,,0.04,,2013-08-02 13:12:00,
2013-08-02 09:22:00,70.0,62.0,29.94,SW,229,1.0,7.0,75,0.00,,,0.04,,2013-08-02 13:22:00,
2013-08-02 09:33:00,71.0,62.0,29.94,West,274,2.0,9.0,73,0.00,,,0.04,,2013-08-02 13:33:00,
2013-08-02 09:43:00,72.0,62.0,29.95,SW,235,1.0,8.0,72,0.00,,,0.04,,2013-08-02 13:43:00,
2013-08-02 09:52:00,73.0,63.0,29.93,SW,230,0.0,8.0,70,0.00,,,0.04,,2013-08-02 13:52:00,
2013-08-02 10:02:00,73.0,63.0,29.93,SW,230,0.0,8.0,70,0.00,,,0.04,,2013-08-02 14:02:00,
2013-08-02 10:12:00,74.0,62.0,29.93,ESE,106,0.0,5.0,66,0.00,,,0.00,,2013-08-02 14:12:00,
2013-08-02 10:22:00,74.0,61.0,29.93,SW,228,3.0,9.0,64,0.00,,,0.00,,2013-08-02 14:22:00,
2013-08-02 10:32:00,74.0,61.0,29.93,SW,228,3.0,9.0,64,0.00,,,0.00,,2013-08-02 14:32:00,
2013-08-02 10:43:00,75.0,62.0,29.93,South,181,0.0,9.0,63,0.00,,,0.00,,2013-08-02 14:43:00,
2013-08-02 10:53:00,74.0,61.0,29.92,SE,144,0.0,8.0,64,0.00,,,0.00,,2013-08-02 14:53:00,
2013-08-02 11:03:00,74.0,61.0,29.92,SE,144,0.0,8.0,64,0.00,,,0.00,,2013-08-02 15:03:00,
2013-08-02 11:12:00,74.0,59.0,29.93,SW,224,4.0,10.0,60,0.00,,,0.00,,2013-08-02 15:12:00,
2013-08-02 11:22:00,74.0,59.0,29.93,SW,224,4.0,10.0,60,0.00,,,0.00,,2013-08-02 15:22:00,
2013-08-02 11:32:00,76.0,61.0,29.92,WSW,244,3.0,10.0,60,0.00,,,0.00,,2013-08-02 15:32:00,
2013-08-02 11:43:00,76.0,60.0,29.90,ESE,121,1.0,6.0,58,0.00,,,0.00,,2013-08-02 15:43:00,
2013-08-02 11:52:00,76.0,60.0,29.91,SW,224,1.0,7.0,57,0.00,,,0.00,,2013-08-02 15:52:00,
2013-08-02 12:02:00,76.0,60.0,29.91,SW,224,1.0,7.0,57,0.00,,,0.00,,2013-08-02 16:02:00,
2013-08-02 12:12:00,74.0,61.0,29.91,South,187,0.0,5.0,63,0.00,,,0.00,,2013-08-02 16:12:00,
2013-08-02 12:22:00,72.0,61.0,29.90,SW,218,0.0,4.0,69,0.00,,,0.00,,2013-08-02 16:22:00,
2013-08-02 12:32:00,72.0,61.0,29.90,SW,218,0.0,4.0,69,0.00,,,0.00,,2013-08-02 16:32:00,
2013-08-02 12:43:00,70.0,62.0,29.92,WSW,239,0.0,1.0,77,0.05,,,0.05,,2013-08-02 16:43:00,
2013-08-02 12:52:00,64.0,58.0,29.96,SW,229,10.0,22.0,81,0.33,,,0.33,,2013-08-02 16:52:00,
2013-08-02 13:02:00,64.0,58.0,29.96,SW,229,10.0,22.0,81,0.33,,,0.33,,2013-08-02 17:02:00,
2013-08-02 13:12:00,64.0,62.0,29.93,WSW,254,0.0,4.0,93,0.48,,,0.48,,2013-08-02 17:12:00,
2013-08-02 13:35:00,65.0,63.0,29.93,ESE,103,0.0,3.0,92,0.48,,,0.48,,2013-08-02 17:35:00,
2013-08-02 13:43:00,65.0,63.0,29.93,ESE,117,1.0,3.0,93,0.43,,,0.48,,2013-08-02 17:43:00,
2013-08-02 13:52:00,65.0,63.0,29.93,ESE,117,1.0,3.0,93,0.43,,,0.48,,2013-08-02 17:52:00,
2013-08-02 14:02:00,66.0,63.0,29.94,ESE,109,0.0,1.0,90,0.14,,,0.48,,2013-08-02 18:02:00,
2013-08-02 14:12:00,67.0,62.0,29.93,ESE,118,2.0,6.0,83,0.00,,,0.48,,2013-08-02 18:12:00,
2013-08-02 14:22:00,67.0,62.0,29.93,ESE,118,2.0,6.0,83,0.00,,,0.48,,2013-08-02 18:22:00,
2013-08-02 14:32:00,67.0,62.0,29.93,ESE,109,0.0,2.0,85,0.00,,,0.48,,2013-08-02 18:32:00,
2013-08-02 14:43:00,67.0,63.0,29.92,ESE,114,0.0,2.0,86,0.00,,,0.48,,2013-08-02 18:43:00,
2013-08-02 14:52:00,67.0,63.0,29.92,ESE,114,0.0,2.0,86,0.00,,,0.48,,2013-08-02 18:52:00,
2013-08-02 15:02:00,67.0,61.0,29.92,SSE,157,0.0,1.0,82,0.00,,,0.48,,2013-08-02 19:02:00,
2013-08-02 15:32:00,69.0,64.0,29.91,SE,138,0.0,3.0,83,0.00,,,0.48,,2013-08-02 19:32:00,
2013-08-02 15:43:00,70.0,63.0,29.90,WSW,253,1.0,4.0,79,0.00,,,0.48,,2013-08-02 19:43:00,
2013-08-02 15:52:00,70.0,63.0,29.90,WSW,253,1.0,4.0,79,0.00,,,0.48,,2013-08-02 19:52:00,
2013-08-02 16:02:00,72.0,64.0,29.90,WSW,238,0.0,5.0,76,0.00,,,0.48,,2013-08-02 20:02:00,
2013-08-02 16:12:00,72.0,62.0,29.90,WNW,294,3.0,8.0,72,0.00,,,0.48,,2013-08-02 20:12:00,
2013-08-02 16:32:00,72.0,63.0,29.89,West,259,2.0,14.0,73,0.00,,,0.48,,2013-08-02 20:32:00,
2013-08-02 16:43:00,71.0,63.0,29.88,WSW,257,0.0,8.0,76,0.00,,,0.48,,2013-08-02 20:43:00,
2013-08-02 16:52:00,70.0,63.0,29.88,WNW,296,0.0,6.0,79,0.00,,,0.48,,2013-08-02 20:52:00,
2013-08-02 17:03:00,70.0,63.0,29.88,WNW,296,0.0,6.0,79,0.00,,,0.48,,2013-08-02 21:03:00,
2013-08-02 17:12:00,70.0,63.0,29.89,WNW,299,1.0,6.0,78,0.00,,,0.48,,2013-08-02 21:12:00,
2013-08-02 17:22:00,70.0,63.0,29.89,WNW,299,1.0,6.0,78,0.00,,,0.48,,2013-08-02 21:22:00,
2013-08-02 17:32:00,70.0,62.0,29.90,WNW,286,0.0,3.0,77,0.00,,,0.48,,2013-08-02 21:32:00,
2013-08-02 17:43:00,69.0,61.0,29.90,NW,304,2.0,8.0,76,0.00,,,0.48,,2013-08-02 21:43:00,
2013-08-02 17:53:00,69.0,61.0,29.89,NW,310,0.0,6.0,76,0.00,,,0.48,,2013-08-02 21:53:00,
2013-08-02 18:03:00,69.0,61.0,29.89,NW,310,0.0,6.0,76,0.00,,,0.48,,2013-08-02 22:03:00,
2013-08-02 18:22:00,71.0,62.0,29.90,NW,306,0.0,9.0,74,0.00,,,0.48,,2013-08-02 22:22:00,
2013-08-02 18:32:00,71.0,62.0,29.90,NW,306,0.0,9.0,74,0.00,,,0.48,,2013-08-02 22:32:00,
2013-08-02 18:43:00,71.0,61.0,29.90,WNW,292,0.0,2.0,70,0.00,,,0.48,,2013-08-02 22:43:00,
2013-08-02 18:52:00,72.0,60.0,29.89,WNW,292,0.0,1.0,67,0.00,,,0.48,,2013-08-02 22:52:00,
2013-08-02 19:02:00,72.0,60.0,29.89,WNW,292,0.0,1.0,67,0.00,,,0.48,,2013-08-02 23:02:00,
2013-08-02 19:12:00,72.0,60.0,29.90,WNW,292,0.0,3.0,67,0.00,,,0.48,,2013-08-02 23:12:00,
2013-08-02 19:22:00,72.0,60.0,29.90,WNW,292,0.0,3.0,67,0.00,,,0.48,,2013-08-02 23:22:00,
2013-08-02 19:32:00,72.0,60.0,29.90,WNW,292,0.0,3.0,67,0.00,,,0.48,,2013-08-02 23:32:00,
2013-08-02 19:43:00,73.0,58.0,29.89,NNW,334,0.0,12.0,60,0.00,,,0.48,,2013-08-02 23:43:00,
2013-08-02 19:53:00,73.0,55.0,29.89,WNW,300,5.0,11.0,54,0.00,,,0.48,,2013-08-02 23:53:00,
2013-08-02 20:02:00,73.0,55.0,29.89,WNW,300,5.0,11.0,54,0.00,,,0.48,,2013-08-03 00:02:00,
2013-08-02 20:12:00,73.0,56.0,29.89,WSW,239,4.0,10.0,55,0.00,,,0.48,,2013-08-03 00:12:00,
2013-08-02 20:22:00,72.0,56.0,29.89,WSW,256,3.0,11.0,58,0.00,,,0.48,,2013-08-03 00:22:00,
2013-08-02 20:33:00,72.0,56.0,29.89,WSW,256,3.0,11.0,58,0.00,,,0.48,,2013-08-03 00:33:00,
2013-08-02 20:43:00,71.0,56.0,29.90,West,259,0.0,2.0,60,0.00,,,0.48,,2013-08-03 00:43:00,
2013-08-02 20:52:00,70.0,61.0,29.90,ESE,104,0.0,2.0,72,0.00,,,0.48,,2013-08-03 00:52:00,
2013-08-02 21:03:00,70.0,61.0,29.90,ESE,104,0.0,2.0,72,0.00,,,0.48,,2013-08-03 01:03:00,
2013-08-02 21:12:00,69.0,61.0,29.89,ESE,104,0.0,1.0,76,0.00,,,0.48,,2013-08-03 01:12:00,
2013-08-02 21:22:00,67.0,60.0,29.89,ESE,104,0.0,1.0,79,0.00,,,0.48,,2013-08-03 01:22:00,
2013-08-02 21:33:00,67.0,60.0,29.89,ESE,104,0.0,1.0,79,0.00,,,0.48,,2013-08-03 01:33:00,
2013-08-02 21:42:00,67.0,61.0,29.90,ESE,104,0.0,0.0,80,0.00,,,0.48,,2013-08-03 01:42:00,
2013-08-02 21:53:00,66.0,60.0,29.90,ESE,104,0.0,0.0,81,0.00,,,0.48,,2013-08-03 01:53:00,
2013-08-02 22:02:00,66.0,60.0,29.90,ESE,104,0.0,0.0,81,0.00,,,0.48,,2013-08-03 02:02:00,
2013-08-02 22:12:00,67.0,59.0,29.91,WSW,243,1.0,4.0,76,0.00,,,0.48,,2013-08-03 02:12:00,
2013-08-02 22:22:00,67.0,59.0,29.91,WSW,243,1.0,4.0,76,0.00,,,0.48,,2013-08-03 02:22:00,
2013-08-02 22:32:00,66.0,59.0,29.91,West,273,3.0,12.0,79,0.04,,,0.52,,2013-08-03 02:32:00,
2013-08-02 22:43:00,64.0,60.0,29.90,WNW,284,0.0,6.0,87,0.04,,,0.52,,2013-08-03 02:43:00,
2013-08-02 22:52:00,64.0,60.0,29.90,WNW,284,0.0,6.0,87,0.04,,,0.52,,2013-08-03 02:52:00,
2013-08-02 23:03:00,64.0,61.0,29.89,WNW,284,0.0,0.0,90,0.04,,,0.52,,2013-08-03 03:03:00,
2013-08-02 23:32:00,63.0,61.0,29.89,WNW,284,0.0,0.0,93,0.00,,,0.52,,2013-08-03 03:32:00,
2013-08-02 23:43:00,63.0,61.0,29.91,WNW,284,0.0,1.0,94,0.00,,,0.52,,2013-08-03 03:43:00,
2013-08-02 23:53:00,63.0,61.0,29.91,WNW,284,0.0,1.0,94,0.00,,,0.52,,2013-08-03 03:53:00,